Other Surface Observations
Issued by NWS Tucson, AZ

Home | Current Version | Previous Version | Text Only | Print | Product List | Glossary On
Versions: 1 2 3 4 5 6 7 8 9 10 11 12 13 14 15 16 17 18 19 20 21 22 23 24 25 26 27 28 29 30 31 32 33 34 35 36 37 38 39 40 41 42 43 44 45 46 47 48 49 50
907
SXUS55 KTWC 242115
OSOTWC

WEATHER ROUNDUP FOR SOUTHEAST ARIZONA
NATIONAL WEATHER SERVICE TUCSON AZ
215 PM MST SUN SEP 24 2017

AZZ504>506-514-242215-
LOCATION       SKY/WX    TMP DP  RH WIND       PRES   REMARKS
TUCSON         SUNNY     83  31  15 N7        29.84F
DAVIS-MONTHAN  SUNNY     83  30  15 N14       29.82F
CHILDRENS PARK N/A      N/A N/A  17 W4                PIMA CO DEQ
ALVERNON/22ND  N/A       80 N/A N/A NW4               PIMA CO DEQ
CHERRY/GLENN   N/A      N/A N/A N/A N/A               PIMA CO DEQ
TANGERINE      N/A       80 N/A N/A W5                PIMA CO DEQ
CONTL RANCH    N/A       80  31  17 NW5               PIMA CO DEQ
GRANT/1ST      N/A       79  30  17 NW5               PIMA CO DEQ
CRAYCROFT/22ND N/A       80  33  18 N/A               PIMA CO DEQ
GOLFLINKS/KOLB N/A       80  35  20 W4                PIMA CO DEQ
AJO/12TH       N/A       80  34  19 S5                PIMA CO DEQ
FAIRGROUNDS    N/A       79 N/A N/A W6                PIMA CO DEQ
SAGUARO        N/A       83  32  16 W6G12             *SABINO CYN
SAN CARLOS     N/A       85  34  16 NE3               *SAN CARLOS
GREEN VALLEY   N/A       81  32  17 W2                PIMA CO DEQ
HORSE CAMP CYN N/A       77  29  17 SW9G18            *ARAVAIPA CYN
RINCON MTNS    N/A       65  26  23 SW3G10            *NR MANNING CAMP
$$

AZZ509>511-242215-
LOCATION       SKY/WX    TMP DP  RH WIND       PRES   REMARKS
SAFFORD        SUNNY     83  31  15 VRB6      29.81F
STRAY HORSE    N/A       61  25  25 SW9G15            *
TRAIL CABIN    N/A       70  25  18 SW6G16            *N OF GRANVILLE
BLACK HILLS    NOT AVBL
DRY LAKE       N/A       66  28  24 SW5G13            *NATANES MTNS
NOON CREEK     N/A       76  29  18 NE5G12            *PINALENO MTNS
COLUMBINE      N/A       53  33  46 SW7G17            *PINALENO MTNS
GUTHRIE        N/A       68  31  25 SW12G20           *SW OF GUTHRIE
$$

AZZ502-503-513-242215-
LOCATION       SKY/WX    TMP DP  RH WIND       PRES   REMARKS
NOGALES        SUNNY     82  37  20 MISG      29.87F
SELLS          N/A       84  30  14 NE7G12            *
SASABE         N/A       81  31  16 SW5G10            *ALTAR VLY
HOPKINS        N/A       68  28  22 W9G17             *SANTA RITA MTNS
CARR CYN       N/A       77  36  23 SW4G11            *W OF HEREFORD
$$

AZZ507-508-512-242215-
LOCATION       SKY/WX    TMP DP  RH WIND       PRES   REMARKS
SIERRA VISTA   SUNNY     80  34  18 SE3       29.90F
DOUGLAS        MOSUNNY   81  38  21 VRB7      29.84F
EMPIRE MTNS    NOT AVBL
MULESHOE RANCH N/A       76  32  20 N3G14             *PRESERVE
HEADQUARTERS   N/A       77  35  22 S3G17             *CHIRICAHUA MTNS
$$

.............................NOTES.............................
THIS IS AN AUTOMATED COLLECTIVE WITH MINIMAL QUALITY CONTROL.
PIMA CO DEQ SITES HAVE NONSTANDARD WIND SENSOR HEIGHTS.
PIMA CO DEQ SITES DO NOT REPORT WIND GUSTS.
* INDICATES WIND SENSORS LOCATED AT 20 FEET INSTEAD OF 33 FEET.
..............................KEY..............................
SKY/WX - SKY CONDITION/WEATHER
TMP    - TEMPERATURE IN FAHRENHEIT
DP     - DEWPOINT IN FAHRENHEIT
RH     - RELATIVE HUMIDITY IN PERCENT
WIND   - DIRECTION AND SPEED IN MILES PER HOUR (MPH)
VRB    - VARIABLE WIND DIRECTION
PRES   - MEAN SEA LEVEL PRESSURE IN INCHES OF MERCURY
         F - FALLING PRESSURE   R - RISING PRESSURE
         S - STEADY PRESSURE
VSB    - VISIBILITY IN MILES
HX     - HEAT INDEX IN FAHRENHEIT
WCI    - WIND CHILL INDEX IN FAHRENHEIT
N/A    - NOT AVAILABLE
AFB    - AIR FORCE BASE
         DAVIS-MONTHAN IS DAVIS-MONTHAN AIR FORCE BASE
CYN    - CANYON
MTNS   - MOUNTAINS
NCA    - NATIONAL CONSERVATION AREA
NR     - NEAR
VLY    - VALLEY
CONTL  - CONTINENTAL
PIMA CO DEQ - PIMA COUNTY DEPT OF ENVIRONMENTAL QUALITY



USA.gov is the U.S. government's official web portal to all federal, state and local government web resources and services.